User: anonymous   Login
Location: Morlupo
(42.1333°N, 12.5000°E)
Time: 03:34:08
(UTC+00:00)
Language:

Cosmos 1603 - Orbit

View from above orbital plane
View from above orbital plane
View from above satellite
View from above satellite

Ground track
Ground track

The orbit data is extracted from the following two-line orbital elements,

1 15333U 84106A   20339.35339857  .00000297  00000-0  18036-3 0  9993
2 15333  71.0258 320.9194 0017562  78.6239 281.6855 14.14105559867252
Epoch (UTC): 04 December 2020 08:28:53
Eccentricity: 0.0017562
inclination: 71.0258°
perigee height: 832 km
apogee height: 858 km
right ascension of ascending node: 320.9194°
argument of perigee: 78.6239°
revolutions per day: 14.14105559
mean anomaly at epoch: 281.6855°
orbit number at epoch: 86725

The dashed part of the orbit path shows where the satellite is in the earth's shadow,  

DLR